This is the latest recevied weather packets stored in our database for station/object VE3EP-1. If no packets are shown the sender has not sent any weather packets the latest 10 day(s).
| Time | Temp. | Humidity | Pressure | Rain* | Wind** | Luminosity | Snow |
|---|---|---|---|---|---|---|---|
| 1777779728 | 5.56° C | 78% | 1016.4 hPa | 0 mm | - | - | - |
| 1777779128 | 5.56° C | 77% | 1016.6 hPa | 0 mm | - | - | - |
| 1777777931 | 5.56° C | 79% | 1016.6 hPa | 0 mm | - | - | - |
| 1777777329 | 5° C | 81% | 1016.7 hPa | 0 mm | - | - | - |
| 1777776728 | 5° C | 81% | 1016.7 hPa | 0 mm | - | - | - |
| 1777776129 | 5.56° C | 81% | 1016.8 hPa | 0 mm | - | - | - |
| 1777775528 | 5.56° C | 82% | 1016.7 hPa | 0 mm | - | - | - |
| 1777774929 | 5.56° C | 81% | 1016.8 hPa | 0 mm | - | - | - |
| 1777774332 | 5° C | 82% | 1016.9 hPa | 0 mm | - | - | - |
| 1777773728 | 5° C | 81% | 1017 hPa | 0 mm | - | - | - |
| 1777773128 | 5° C | 80% | 1016.9 hPa | 0 mm | - | - | - |
| 1777772528 | 5° C | 80% | 1016.8 hPa | 0 mm | - | - | - |
| 1777771930 | 5° C | 78% | 1016.8 hPa | 0 mm | - | - | - |
| 1777771329 | 5° C | 77% | 1016.8 hPa | 0 mm | - | - | - |
| 1777770728 | 5° C | 76% | 1016.9 hPa | 0 mm | - | - | - |
| 1777770129 | 5° C | 75% | 1016.8 hPa | 0 mm | - | - | - |
| 1777769528 | 5° C | 75% | 1016.6 hPa | 0 mm | - | - | - |
| 1777767128 | 5° C | 78% | 1016.4 hPa | 0 mm | - | - | - |
| 1777766528 | 5° C | 79% | 1016.2 hPa | 0 mm | - | - | - |
| 1777765928 | 5° C | 79% | 1016.2 hPa | 0 mm | - | - | - |
| 1777765330 | 5° C | 80% | 1016.1 hPa | 0 mm | - | - | - |
| 1777763529 | 5.56° C | 76% | 1016.3 hPa | 0 mm | - | - | - |
| 1777762928 | 5.56° C | 74% | 1016.3 hPa | 0 mm | - | - | - |
| 1777762328 | 5.56° C | 73% | 1016.2 hPa | 0 mm | - | - | - |
| 1777761728 | 5.56° C | 73% | 1016.2 hPa | 0 mm | - | - | - |
* Rain latest hour (hover to see other rain measurements)
** Current wind speed in m/s (hover to see current wind gust speed)